Vorticity
10 10 10 10 10 10 10 9 9 9 9 8 8 8 8 8 8 8 9 9 9 9 10 10 10 10 10 11 11 12 12 13 14 14 13 12 11 10 8 7 6 6 7 7 8 8 8 9 9 10 11 12 11 11 11 12 12 12 13 14 15 15 14 13 12 10 8 6 5
10 10 10 9 9 9 9 9 8 8 8 8 7 7 7 8 8 9 9 10 10 9 9 9 10 10 11 11 12 12 13 13 12 11 11 10 9 8 7 6 6 7 8 9 10 11 11 12 12 13 13 12 12 12 12 13 13 13 13 14 14 15 16 16 16 15 13 10 7
10 9 9 9 9 8 8 7 7 7 7 7 7 8 8 9 9 9 9 9 9 9 9 10 10 11 11 12 12 12 12 11 10 10 10 10 7 7 7 8 9 11 12 14 16 17 18 19 20 20 20 20 20 20 19 19 18 17 17 16 16 16 18 18 18 17 15 14 12
9 9 9 8 8 8 7 7 6 6 7 7 8 9 9 9 9 9 9 8 9 10 11 11 11 12 12 12 12 11 10 9 9 9 9 9 9 9 11 12 14 15 17 19 21 22 23 24 25 26 26 26 26 26 26 25 24 23 22 20 18 18 18 19 19 18 17 16 14
9 9 8 8 7 7 7 7 7 8 8 9 9 9 9 9 8 8 8 9 11 11 12 12 12 12 12 12 11 9 9 8 9 10 11 12 13 14 14 15 16 16 17 18 19 19 20 21 22 23 24 24 24 25 25 25 26 26 27 26 24 21 19 18 18 18 19 18 16
8 8 8 7 7 7 7 8 9 9 9 9 9 9 8 8 8 9 10 11 12 12 12 12 12 12 11 10 9 8 9 10 12 13 13 14 14 14 14 14 14 13 13 13 13 14 14 14 15 16 17 17 17 18 18 18 20 22 24 27 29 28 26 23 21 19 19 19 19
8 8 7 7 8 8 9 9 10 10 9 9 8 8 8 8 10 11 12 12 12 12 12 12 11 10 9 8 8 9 11 12 13 13 12 12 12 12 11 11 10 10 10 11 12 13 14 15 15 16 17 17 16 16 16 16 16 18 20 23 26 29 31 30 27 24 22 21 21
8 8 8 8 9 10 10 10 10 9 8 8 7 8 9 10 11 11 11 11 12 12 11 10 9 8 8 8 9 10 11 11 11 10 9 9 9 9 9 9 9 10 11 12 14 16 18 20 21 22 22 23 21 20 19 19 19 20 22 22 24 27 30 31 31 29 27 25 24
8 9 9 10 10 11 10 10 8 8 7 7 8 9 10 10 10 10 11 13 12 11 10 9 8 8 8 9 10 10 9 8 7 7 7 7 8 8 8 9 10 12 13 15 17 20 22 24 26 27 27 27 24 23 22 21 22 24 26 26 26 27 28 30 30 30 30 29 28
9 10 10 11 10 10 8 7 7 7 7 8 9 9 9 9 10 12 13 14 12 10 8 7 7 8 9 9 9 8 6 4 4 5 6 7 8 9 10 11 12 13 14 16 18 21 23 26 27 28 28 26 24 21 21 22 25 28 30 32 31 31 30 31 31 31 31 31 31
10 10 10 9 8 7 6 6 6 7 7 8 8 9 10 12 14 15 14 12 9 7 6 6 7 8 8 8 7 5 4 3 4 5 6 7 7 8 9 10 12 13 14 15 17 20 22 25 26 26 25 24 21 20 20 22 27 32 35 37 37 36 35 35 35 36 35 33 31
10 9 8 7 7 6 6 6 6 7 8 8 9 11 13 15 16 15 12 9 7 6 6 6 7 8 8 7 5 4 4 4 5 5 5 5 6 7 8 10 11 12 13 14 16 18 21 23 25 25 24 22 20 19 20 23 30 36 40 41 39 36 35 35 38 39 39 36 32
8 7 7 6 5 5 6 6 7 8 9 10 12 13 15 16 15 13 10 7 6 5 6 7 7 7 7 6 5 5 6 7 7 6 5 5 5 6 8 9 11 12 13 13 14 17 19 22 25 25 25 23 20 19 20 24 32 39 42 40 33 26 22 21 24 30 34 37 33
7 6 6 5 5 6 7 8 9 10 11 12 14 15 16 16 13 10 7 5 5 5 6 7 7 7 6 6 7 8 9 9 8 7 6 6 6 7 9 11 12 12 13 13 14 15 18 21 24 26 26 24 21 18 17 21 31 39 41 36 25 17 11 7 8 13 20 25 25
6 6 6 6 6 8 9 10 11 12 13 14 16 16 16 14 10 7 6 5 5 5 6 7 6 6 6 7 9 10 10 10 9 8 7 7 8 9 11 12 13 13 13 13 13 14 17 19 23 25 26 25 20 16 13 15 25 34 38 35 28 23 20 17 14 13 13 16 19
6 6 7 7 8 10 11 12 13 13 14 15 16 16 14 11 8 6 5 4 5 5 6 6 6 6 7 9 10 11 11 10 9 8 8 8 9 10 12 14 15 15 14 14 13 14 15 18 21 24 26 25 21 16 11 9 15 23 29 31 29 27 24 21 18 16 17 19 23
7 8 8 10 11 12 13 13 13 14 15 16 16 15 12 8 6 4 4 4 4 5 5 5 5 6 7 9 11 11 11 10 9 8 8 8 9 11 13 14 15 16 16 15 14 14 14 16 19 23 25 26 23 19 13 8 9 12 16 18 17 15 14 13 14 15 17 20 24
9 10 11 12 13 13 13 13 14 14 15 16 15 13 10 6 4 4 3 4 4 4 5 5 5 6 7 9 10 11 11 10 9 8 8 8 9 10 12 14 16 16 17 16 15 15 14 15 17 20 23 26 25 23 19 14 10 8 8 8 8 8 9 10 13 15 18 20 21
11 12 13 14 14 14 13 13 14 15 16 16 14 11 8 5 4 3 3 3 3 4 4 4 5 6 7 8 9 10 10 10 8 8 7 7 7 9 10 13 15 16 17 17 17 16 15 15 15 17 20 24 25 26 24 21 16 13 11 10 11 11 12 12 14 17 21 24 25
13 14 14 14 14 13 13 13 14 15 16 15 12 9 6 4 3 2 2 3 3 3 4 4 4 5 6 7 8 9 9 8 7 6 6 5 6 7 8 11 13 15 17 18 18 18 18 16 16 16 17 19 22 25 25 24 22 19 17 16 17 17 18 17 17 19 24 29 31
14 14 14 14 13 12 12 13 14 15 15 14 10 7 5 3 2 2 2 3 3 3 3 3 4 4 5 5 6 7 7 7 6 5 4 4 4 5 7 9 11 13 15 17 19 20 20 20 18 17 16 16 18 20 22 24 23 22 21 20 20 20 19 17 14 14 16 19 21
14 14 13 13 12 12 12 13 15 15 14 12 9 6 4 2 3 3 3 3 2 2 2 3 3 4 4 4 5 5 5 5 4 4 3 3 4 4 5 7 9 11 13 15 18 20 21 23 22 20 18 16 16 16 18 20 21 22 22 22 20 17 14 9 7 7 7 9 9
14 13 12 11 11 12 13 14 15 15 14 11 8 5 3 3 4 4 4 4 3 2 2 2 3 3 4 4 4 4 4 4 3 3 3 3 3 4 5 6 7 8 10 12 15 17 20 23 25 25 24 21 19 17 17 17 19 21 23 23 20 15 9 5 4 4 5 8 10
13 12 11 11 11 12 14 15 16 15 13 9 6 4 4 5 5 6 6 5 3 2 2 2 3 4 4 4 4 4 4 3 3 3 3 3 4 4 5 5 6 7 8 9 10 13 16 19 23 26 27 27 25 23 21 19 19 20 21 22 20 16 12 9 8 8 10 13 17
12 11 11 11 12 14 15 16 16 14 11 8 6 5 5 7 8 8 7 6 5 3 2 2 3 4 4 5 5 5 5 5 5 4 4 4 5 5 6 6 7 7 7 7 7 8 9 12 16 20 24 27 28 29 28 27 25 23 22 21 20 19 17 16 15 16 17 19 20
11 11 11 12 14 16 17 17 15 13 10 7 6 6 8 9 10 10 9 8 6 4 3 3 4 4 5 5 6 6 7 7 7 6 6 6 6 7 7 8 7 7 7 7 6 6 6 6 7 10 14 18 22 25 28 29 29 29 28 27 26 25 25 24 23 23 22 21 21
12 12 14 15 17 18 18 17 14 11 8 7 7 8 10 11 12 11 11 9 7 5 5 4 5 5 5 6 7 7 8 8 8 8 8 8 8 9 9 9 8 8 8 8 7 7 6 5 4 5 6 8 11 14 17 21 24 26 27 28 29 30 30 30 29 28 27 26 24
14 15 17 19 19 18 17 14 11 9 8 8 9 10 11 12 13 12 11 10 8 7 6 6 6 6 6 7 8 8 8 8 8 9 9 10 11 11 10 10 9 9 8 8 8 8 8 7 6 5 4 4 5 6 8 10 12 15 17 19 22 23 25 27 27 28 28 28 27
17 18 20 20 19 16 13 11 9 9 9 10 11 11 12 13 13 13 12 11 9 9 8 7 7 7 7 8 8 8 8 8 9 9 10 11 12 12 11 10 9 9 8 8 9 9 9 9 8 7 7 6 5 5 5 5 6 7 8 10 11 13 15 16 18 19 20 21 22
19 20 19 18 15 12 10 9 9 10 10 11 11 12 12 13 13 13 13 12 11 11 10 8 8 8 9 8 8 8 9 9 9 10 11 12 13 13 12 11 10 9 8 8 8 9 9 10 10 9 9 8 8 7 7 6 6 6 7 7 8 9 11 12 12 13 13 13 13
19 18 15 12 10 9 9 9 10 10 10 10 10 10 11 12 13 13 13 13 13 12 11 10 10 10 10 10 10 10 9 9 9 10 11 12 12 12 11 10 9 9 8 8 8 8 9 9 10 10 10 10 10 10 10 10 10 10 10 10 11 11 12 13 14 15 15 14 14
15 13 10 8 8 8 8 9 8 8 8 7 7 8 8 9 10 10 11 11 12 12 12 13 13 12 12 12 12 11 10 9 9 9 10 11 11 11 10 10 9 9 8 8 8 8 8 9 9 9 10 10 10 11 11 12 12 12 12 12 12 12 12 13 14 15 16 17 18
11 9 7 6 7 7 7 7 6 6 5 5 5 5 6 6 7 8 9 10 11 12 13 14 14 15 15 15 14 12 11 9 8 8 8 8 8 8 8 9 9 8 8 8 8 8 8 9 9 9 9 9 9 10 10 10 11 11 11 11 11 11 11 11 11 12 12 13 14
8 7 6 6 6 5 5 4 4 5 5 5 6 6 6 7 8 9 10 12 13 14 14 15 16 16 16 15 14 12 9 8 7 6 6 6 6 6 7 7 7 8 8 8 8 8 8 8 8 8 8 8 8 8 9 9 10 10 11 11 11 11 11 11 12 12 12 13 12
8 7 7 6 5 5 4 5 6 6 7 8 8 9 10 10 11 12 13 13 14 15 16 16 16 16 15 14 11 9 7 6 5 5 5 5 5 6 6 6 7 7 8 8 8 8 8 8 8 7 7 7 8 8 9 9 10 11 12 12 12 13 13 13 14 14 15 15 15
9 8 7 6 5 5 6 7 8 9 10 11 11 12 13 13 14 14 14 14 15 15 16 15 14 13 12 10 8 7 5 5 5 5 5 5 6 6 6 6 7 7 8 8 8 8 8 8 8 8 8 9 9 10 10 11 12 12 13 13 13 13 13 14 14 14 14 13 13
8 7 6 6 6 6 7 9 10 11 12 12 13 13 14 14 15 15 15 15 15 14 13 12 11 9 8 6 5 5 5 5 5 5 6 6 7 7 7 7 8 8 9 9 9 10 10 10 11 11 11 11 12 12 12 13 13 13 13 13 13 12 12 11 11 10 10 9 8
7 6 5 5 6 7 8 10 11 11 12 13 13 14 14 14 14 14 14 13 12 11 10 8 7 6 5 5 5 5 5 6 6 6 7 7 8 8 8 9 10 10 11 12 12 13 13 14 14 14 14 14 13 13 13 13 12 12 11 11 10 9 9 8 8 7 7 6 6
5 4 4 5 7 8 10 11 12 12 12 13 13 13 13 13 13 12 11 11 9 8 7 6 6 5 5 5 5 6 6 7 7 7 7 8 8 9 10 10 11 12 13 14 15 15 15 15 15 15 15 14 14 13 12 11 10 9 8 8 7 7 6 6 6 5 5 5 5
4 4 5 7 9 10 12 12 13 13 13 13 13 12 12 11 11 10 9 8 7 6 6 5 5 5 5 6 6 7 7 8 8 8 9 9 10 10 11 12 13 14 14 15 15 16 16 15 15 14 14 13 12 11 10 9 8 7 6 6 5 5 5 5 5 5 5 6 6
5 6 7 9 11 12 13 14 13 13 13 12 12 11 10 9 9 8 7 6 6 5 5 5 6 6 6 7 7 8 8 8 9 10 10 11 11 12 13 13 14 14 15 15 15 15 14 14 13 12 11 10 9 8 7 7 6 6 5 5 5 6 6 6 6 6 6 6 7
Height
5758 5757 5757 5757 5757 5756 5756 5756 5755 5755 5754 5754 5754 5753 5753 5753 5752 5752 5752 5751 5751 5750 5749 5748 5748 5747 5746 5745 5744 5743 5742 5742 5741 5739 5737 5736 5734 5732 5730 5728 5727 5725 5724 5723 5722 5721 5720 5719 5718 5717 5715 5713 5712 5711 5710 5708 5707 5705 5704 5703 5702 5703 5704 5704 5702 5702 5702 5702 5700
5755 5755 5754 5754 5754 5753 5753 5753 5752 5752 5752 5751 5751 5751 5750 5750 5749 5749 5749 5748 5748 5747 5746 5746 5745 5744 5743 5742 5741 5741 5740 5738 5737 5736 5734 5732 5730 5728 5726 5724 5722 5720 5719 5717 5716 5715 5714 5713 5712 5710 5709 5707 5706 5704 5703 5702 5701 5699 5698 5697 5696 5696 5697 5697 5697 5697 5696 5695 5694
5752 5752 5752 5751 5751 5751 5750 5750 5750 5749 5749 5748 5748 5748 5747 5747 5747 5746 5746 5745 5745 5744 5743 5743 5742 5741 5740 5739 5738 5738 5737 5735 5734 5732 5731 5729 5726 5724 5721 5719 5717 5716 5714 5712 5711 5709 5707 5706 5705 5703 5702 5700 5699 5697 5696 5695 5693 5692 5691 5690 5689 5689 5690 5690 5691 5690 5689 5688 5688
5749 5749 5749 5748 5748 5748 5747 5747 5747 5747 5746 5746 5745 5745 5744 5744 5743 5743 5742 5742 5742 5741 5740 5739 5739 5738 5737 5736 5735 5734 5733 5732 5730 5729 5727 5725 5723 5720 5718 5715 5713 5711 5709 5708 5706 5704 5702 5700 5699 5697 5695 5694 5692 5691 5689 5688 5687 5685 5684 5683 5683 5682 5682 5682 5682 5682 5682 5682 5682
5746 5746 5746 5746 5745 5745 5745 5744 5744 5744 5743 5743 5742 5742 5742 5741 5741 5740 5740 5739 5738 5738 5737 5736 5735 5734 5734 5733 5731 5730 5729 5728 5727 5725 5723 5721 5719 5717 5714 5712 5710 5707 5705 5703 5701 5699 5697 5695 5693 5692 5690 5688 5686 5684 5682 5681 5680 5678 5677 5676 5676 5675 5674 5674 5674 5674 5675 5675 5674
5744 5744 5743 5743 5743 5742 5742 5742 5742 5741 5741 5740 5740 5739 5739 5739 5738 5738 5737 5736 5735 5734 5733 5733 5732 5732 5731 5730 5728 5727 5726 5724 5723 5721 5719 5717 5716 5713 5711 5708 5706 5704 5701 5699 5697 5695 5692 5691 5689 5687 5684 5682 5680 5678 5677 5675 5673 5672 5671 5669 5668 5668 5667 5667 5667 5667 5667 5668 5668
5742 5741 5741 5741 5740 5740 5740 5739 5739 5738 5738 5737 5737 5737 5737 5736 5736 5735 5734 5733 5732 5731 5730 5730 5729 5729 5728 5727 5725 5724 5722 5721 5720 5718 5716 5714 5712 5710 5707 5705 5702 5700 5697 5694 5692 5689 5687 5685 5683 5681 5679 5677 5675 5672 5671 5669 5667 5666 5664 5663 5662 5661 5661 5660 5660 5660 5661 5661 5662
5739 5739 5738 5738 5738 5737 5737 5737 5736 5736 5736 5735 5735 5735 5734 5734 5733 5732 5731 5730 5729 5728 5727 5727 5727 5726 5725 5723 5722 5721 5720 5718 5717 5715 5713 5711 5709 5707 5704 5702 5699 5696 5693 5690 5687 5685 5682 5680 5678 5676 5674 5672 5669 5667 5665 5664 5662 5660 5658 5657 5655 5654 5654 5654 5653 5653 5654 5654 5655
5737 5736 5736 5736 5735 5735 5734 5734 5734 5733 5733 5733 5732 5732 5732 5731 5730 5729 5728 5727 5727 5726 5725 5724 5724 5723 5722 5720 5719 5718 5717 5716 5714 5712 5710 5708 5706 5703 5701 5698 5695 5692 5689 5686 5683 5680 5677 5675 5673 5671 5668 5667 5664 5662 5660 5658 5656 5654 5652 5651 5649 5648 5647 5647 5647 5647 5647 5648 5648
5734 5734 5733 5733 5732 5732 5732 5731 5731 5731 5731 5730 5729 5729 5728 5727 5727 5726 5725 5725 5724 5723 5722 5722 5721 5720 5718 5717 5716 5715 5714 5713 5712 5710 5708 5705 5703 5700 5697 5695 5692 5689 5686 5683 5680 5677 5673 5671 5668 5666 5663 5662 5660 5657 5655 5653 5651 5649 5647 5645 5644 5643 5642 5642 5642 5642 5642 5642 5643
5731 5731 5731 5730 5730 5729 5729 5729 5728 5728 5727 5727 5726 5726 5725 5724 5724 5723 5723 5722 5722 5721 5720 5718 5717 5717 5716 5714 5713 5712 5711 5709 5708 5707 5704 5702 5700 5697 5694 5692 5689 5686 5682 5679 5676 5673 5670 5667 5664 5662 5659 5657 5655 5653 5651 5648 5646 5644 5642 5640 5639 5638 5637 5637 5637 5637 5637 5637 5638
5728 5728 5728 5727 5727 5727 5726 5726 5725 5725 5724 5724 5723 5723 5722 5722 5721 5721 5720 5720 5719 5718 5717 5716 5715 5714 5713 5712 5710 5709 5708 5706 5705 5703 5701 5699 5697 5694 5691 5688 5686 5682 5679 5676 5673 5670 5667 5664 5661 5658 5656 5653 5652 5650 5647 5645 5642 5639 5637 5636 5635 5634 5634 5634 5633 5633 5633 5633 5634
5726 5725 5725 5724 5724 5723 5723 5723 5722 5722 5721 5721 5720 5720 5720 5719 5718 5718 5717 5717 5716 5715 5714 5713 5712 5711 5710 5709 5708 5706 5705 5703 5702 5700 5698 5696 5693 5691 5688 5686 5682 5679 5676 5673 5670 5667 5664 5661 5658 5655 5653 5651 5648 5647 5644 5642 5639 5636 5634 5633 5632 5632 5632 5631 5631 5630 5630 5630 5630
5722 5722 5722 5721 5721 5721 5720 5720 5720 5719 5719 5718 5718 5717 5717 5716 5716 5715 5715 5714 5713 5713 5712 5711 5710 5709 5708 5707 5705 5704 5702 5700 5699 5697 5695 5693 5691 5688 5685 5683 5680 5677 5673 5670 5667 5664 5661 5658 5655 5652 5650 5648 5646 5644 5642 5639 5637 5634 5632 5631 5631 5630 5629 5629 5628 5628 5628 5628 5627
5720 5719 5719 5718 5718 5718 5717 5717 5717 5716 5716 5716 5715 5715 5714 5714 5713 5713 5712 5711 5711 5710 5709 5708 5707 5707 5705 5704 5702 5701 5699 5698 5696 5694 5692 5690 5688 5685 5683 5680 5677 5674 5671 5668 5665 5662 5658 5655 5652 5650 5647 5645 5643 5642 5640 5637 5635 5633 5632 5630 5629 5629 5628 5627 5627 5627 5626 5626 5625
5717 5717 5716 5716 5716 5715 5715 5715 5714 5714 5713 5713 5712 5712 5712 5711 5711 5710 5709 5709 5708 5707 5707 5706 5705 5704 5703 5702 5700 5698 5697 5695 5693 5692 5690 5687 5685 5683 5680 5677 5674 5672 5668 5665 5662 5659 5656 5653 5650 5647 5645 5642 5641 5639 5637 5636 5634 5632 5631 5629 5628 5627 5627 5626 5625 5624 5624 5623 5623
5714 5714 5713 5713 5713 5712 5712 5712 5712 5711 5711 5710 5710 5709 5709 5708 5708 5707 5707 5706 5706 5705 5705 5704 5703 5702 5700 5699 5697 5696 5694 5693 5691 5689 5687 5685 5683 5680 5678 5675 5672 5669 5666 5663 5660 5657 5653 5651 5648 5645 5642 5640 5638 5637 5635 5634 5632 5631 5630 5628 5627 5626 5625 5624 5623 5622 5622 5621 5621
5712 5711 5711 5710 5710 5710 5710 5709 5709 5708 5708 5707 5707 5707 5706 5706 5705 5705 5704 5704 5703 5703 5702 5702 5701 5699 5698 5697 5695 5694 5692 5690 5688 5687 5685 5682 5680 5678 5675 5672 5670 5667 5663 5660 5657 5654 5652 5649 5646 5643 5641 5638 5637 5635 5633 5632 5631 5629 5628 5627 5626 5624 5623 5622 5621 5620 5619 5619 5619
5709 5708 5708 5708 5707 5707 5707 5706 5706 5705 5705 5705 5704 5704 5704 5703 5703 5702 5702 5702 5701 5701 5700 5699 5698 5697 5696 5694 5693 5691 5690 5688 5686 5684 5682 5680 5678 5675 5673 5670 5667 5664 5661 5658 5655 5652 5649 5647 5644 5642 5639 5637 5635 5633 5632 5630 5629 5627 5626 5625 5624 5622 5621 5620 5619 5618 5617 5617 5616
5706 5706 5705 5705 5705 5704 5704 5703 5703 5702 5702 5702 5702 5702 5701 5701 5701 5700 5700 5699 5699 5698 5697 5697 5696 5694 5693 5692 5690 5689 5687 5686 5684 5682 5680 5677 5675 5673 5670 5668 5665 5662 5659 5656 5653 5651 5648 5645 5642 5640 5637 5635 5633 5632 5630 5628 5627 5626 5624 5623 5622 5621 5620 5618 5617 5616 5615 5615 5615
5703 5703 5702 5702 5702 5702 5701 5701 5700 5700 5700 5699 5699 5699 5699 5698 5698 5698 5697 5697 5697 5696 5695 5694 5693 5692 5691 5689 5688 5687 5685 5683 5681 5679 5677 5675 5673 5671 5668 5666 5663 5660 5657 5655 5652 5649 5646 5643 5641 5638 5636 5634 5632 5630 5628 5627 5625 5624 5622 5621 5620 5619 5618 5617 5616 5614 5614 5613 5612
5701 5700 5700 5699 5699 5699 5698 5698 5697 5697 5697 5697 5697 5697 5697 5696 5696 5696 5695 5695 5694 5693 5692 5692 5691 5689 5688 5687 5686 5684 5682 5681 5679 5677 5675 5673 5671 5669 5666 5664 5661 5659 5656 5653 5651 5648 5645 5642 5640 5637 5635 5632 5631 5628 5627 5625 5623 5622 5621 5620 5619 5617 5617 5615 5614 5613 5612 5611 5611
5698 5697 5697 5697 5697 5696 5696 5695 5695 5695 5695 5695 5695 5694 5694 5694 5694 5693 5693 5692 5692 5691 5690 5689 5688 5687 5686 5684 5683 5682 5680 5678 5677 5675 5673 5671 5669 5667 5664 5662 5660 5657 5655 5652 5649 5647 5644 5641 5639 5636 5634 5632 5629 5627 5625 5624 5622 5621 5619 5618 5617 5616 5614 5613 5612 5611 5610 5610 5609
5696 5695 5695 5694 5694 5694 5693 5693 5693 5693 5692 5692 5692 5692 5692 5692 5692 5691 5691 5690 5689 5689 5688 5687 5686 5684 5683 5682 5681 5679 5677 5676 5674 5673 5671 5669 5667 5665 5662 5660 5658 5656 5653 5651 5648 5646 5643 5641 5638 5635 5633 5631 5628 5626 5624 5623 5621 5620 5618 5617 5616 5614 5613 5611 5610 5610 5609 5608 5608
5693 5693 5692 5692 5692 5691 5691 5691 5691 5691 5691 5691 5691 5690 5690 5690 5689 5689 5688 5688 5687 5686 5685 5684 5683 5682 5681 5679 5678 5677 5675 5674 5672 5671 5669 5667 5665 5663 5661 5659 5657 5654 5652 5650 5647 5645 5642 5640 5637 5635 5632 5630 5628 5626 5624 5622 5620 5619 5617 5616 5614 5613 5612 5610 5609 5608 5608 5607 5606
5691 5691 5690 5690 5689 5689 5689 5689 5689 5689 5689 5689 5688 5688 5688 5687 5687 5686 5686 5685 5685 5684 5683 5682 5681 5680 5678 5677 5676 5674 5673 5672 5670 5668 5667 5665 5663 5661 5659 5657 5655 5652 5650 5648 5646 5644 5642 5639 5637 5634 5632 5630 5627 5625 5623 5621 5619 5618 5616 5615 5613 5612 5611 5609 5608 5607 5606 5606 5605
5688 5688 5688 5687 5687 5687 5687 5687 5687 5687 5687 5687 5686 5686 5685 5685 5684 5684 5683 5683 5682 5682 5681 5680 5678 5677 5676 5675 5674 5672 5671 5669 5668 5666 5665 5663 5661 5659 5657 5655 5653 5651 5649 5647 5645 5643 5641 5638 5636 5634 5632 5629 5627 5625 5623 5621 5619 5617 5615 5613 5612 5611 5609 5608 5607 5606 5605 5604 5603
5686 5686 5686 5686 5685 5685 5685 5685 5685 5685 5685 5684 5684 5683 5683 5682 5682 5682 5681 5681 5680 5679 5678 5677 5676 5675 5674 5673 5672 5670 5669 5667 5666 5664 5662 5661 5659 5657 5655 5653 5651 5649 5647 5645 5643 5642 5639 5637 5635 5633 5631 5629 5627 5625 5622 5621 5618 5617 5615 5613 5612 5610 5609 5608 5607 5605 5604 5603 5603
5684 5684 5684 5684 5683 5683 5683 5683 5683 5683 5682 5682 5682 5681 5681 5681 5680 5680 5679 5678 5678 5677 5676 5675 5674 5673 5672 5671 5669 5668 5667 5665 5664 5662 5661 5659 5657 5655 5653 5652 5650 5648 5646 5644 5642 5640 5638 5636 5634 5632 5630 5628 5626 5624 5622 5621 5619 5617 5615 5614 5612 5611 5609 5608 5607 5606 5604 5603 5602
5682 5682 5682 5682 5682 5682 5682 5682 5681 5681 5681 5680 5680 5679 5679 5678 5678 5677 5677 5677 5676 5675 5674 5673 5672 5671 5670 5668 5667 5666 5665 5663 5662 5660 5659 5657 5655 5654 5652 5650 5648 5646 5644 5642 5641 5639 5637 5635 5633 5631 5629 5627 5626 5624 5622 5620 5619 5617 5616 5614 5613 5611 5610 5608 5607 5606 5605 5604 5603
5680 5680 5680 5680 5680 5680 5680 5680 5679 5679 5679 5678 5678 5677 5677 5677 5676 5676 5675 5674 5673 5672 5672 5671 5670 5669 5667 5667 5665 5664 5663 5661 5660 5658 5657 5655 5654 5652 5650 5648 5647 5645 5643 5641 5639 5637 5635 5634 5632 5630 5628 5627 5625 5623 5622 5620 5618 5617 5616 5614 5613 5612 5610 5609 5607 5606 5605 5604 5603
5679 5679 5679 5679 5679 5678 5678 5678 5677 5677 5677 5677 5676 5676 5676 5675 5674 5674 5673 5672 5671 5670 5669 5668 5667 5667 5666 5664 5663 5662 5661 5660 5658 5657 5655 5654 5652 5650 5648 5647 5645 5643 5641 5640 5638 5636 5634 5632 5631 5629 5627 5626 5624 5622 5621 5619 5618 5617 5615 5614 5612 5611 5610 5609 5608 5607 5606 5604 5603
5677 5677 5677 5677 5677 5677 5677 5676 5676 5676 5675 5675 5675 5674 5674 5673 5672 5672 5671 5670 5669 5668 5667 5667 5666 5665 5663 5662 5662 5660 5659 5658 5657 5655 5653 5652 5650 5649 5647 5645 5643 5642 5640 5638 5637 5635 5633 5631 5629 5628 5626 5625 5623 5622 5620 5619 5617 5616 5615 5613 5612 5611 5610 5609 5608 5607 5606 5604 5603
5676 5676 5676 5676 5676 5675 5675 5675 5674 5674 5673 5673 5673 5672 5672 5671 5670 5670 5669 5668 5667 5666 5665 5664 5663 5662 5662 5661 5660 5658 5657 5656 5655 5653 5652 5650 5649 5647 5645 5644 5642 5640 5638 5637 5635 5633 5632 5630 5628 5627 5625 5624 5622 5621 5619 5618 5617 5615 5614 5613 5612 5611 5609 5608 5607 5606 5605 5604 5603
5674 5674 5674 5674 5674 5674 5673 5673 5673 5672 5672 5671 5671 5670 5670 5669 5668 5667 5667 5666 5665 5664 5663 5663 5662 5661 5660 5659 5658 5657 5656 5654 5653 5652 5650 5648 5647 5645 5644 5642 5641 5639 5637 5636 5634 5632 5631 5629 5627 5626 5624 5623 5621 5620 5618 5617 5616 5614 5613 5612 5611 5610 5609 5608 5607 5606 5605 5604 5603
5673 5673 5673 5672 5672 5672 5672 5672 5671 5671 5670 5670 5669 5668 5668 5667 5666 5666 5665 5664 5663 5663 5662 5661 5660 5659 5658 5657 5656 5655 5654 5653 5651 5650 5648 5647 5645 5644 5642 5641 5639 5637 5636 5634 5632 5631 5629 5628 5626 5624 5623 5621 5620 5618 5617 5616 5615 5613 5612 5611 5610 5609 5608 5607 5606 5605 5604 5603 5602
5671 5671 5671 5671 5671 5671 5670 5670 5669 5669 5668 5668 5667 5667 5666 5665 5665 5664 5663 5662 5662 5661 5661 5660 5659 5658 5657 5656 5655 5653 5652 5651 5650 5648 5647 5645 5644 5642 5641 5639 5637 5636 5634 5633 5631 5629 5628 5626 5625 5623 5622 5620 5619 5617 5616 5615 5614 5613 5612 5611 5610 5609 5608 5607 5606 5605 5604 5603 5602
5670 5670 5670 5669 5669 5669 5668 5668 5667 5667 5667 5666 5665 5665 5664 5664 5663 5662 5662 5661 5660 5660 5659 5658 5657 5656 5655 5654 5653 5652 5651 5649 5648 5647 5645 5644 5642 5641 5639 5637 5636 5634 5632 5631 5629 5628 5626 5625 5623 5622 5621 5619 5618 5617 5616 5615 5613 5612 5612 5611 5609 5608 5607 5606 5605 5604 5603 5602 5601
5668 5668 5668 5668 5667 5667 5667 5666 5666 5666 5665 5664 5664 5663 5663 5662 5662 5661 5660 5660 5659 5658 5657 5657 5656 5655 5654 5652 5651 5650 5649 5647 5646 5645 5643 5642 5640 5639 5637 5636 5634 5632 5631 5629 5628 5626 5625 5623 5622 5621 5620 5618 5617 5616 5615 5614 5613 5612 5611 5610 5609 5608 5607 5606 5605 5603 5602 5601 5600
5667 5667 5667 5666 5666 5666 5665 5665 5664 5664 5663 5663 5662 5662 5661 5661 5660 5659 5659 5658 5657 5657 5656 5655 5654 5653 5652 5651 5650 5649 5647 5646 5645 5643 5642 5640 5638 5637 5636 5634 5632 5631 5629 5628 5627 5625 5624 5622 5621 5620 5619 5618 5617 5616 5615 5613 5612 5612 5611 5609 5608 5607 5606 5605 5604 5602 5602 5600 5599
5665 5665 5665 5665 5664 5664 5663 5663 5663 5662 5662 5661 5661 5660 5660 5659 5659 5658 5657 5657 5656 5655 5654 5653 5652 5652 5650 5649 5648 5647 5646 5644 5643 5641 5640 5638 5637 5635 5634 5632 5631 5629 5628 5627 5625 5624 5623 5622 5620 5619 5618 5617 5616 5615 5614 5613 5612 5611 5610 5609 5607 5607 5605 5604 5603 5602 5600 5599 5598